User: anonymous   Login
Location: Unspecified
(0.0000°N, 0.0000°E)
Time: 19:14:45
(UTC+00:00)
Language:

KUIPER-00051 - Orbit

View from above orbital plane
View from above orbital plane
View from above satellite
View from above satellite

Ground track
Ground track

The orbit is defined by the following mean orbital elements,

1 64511U          26144.67875860 +.00000000 +00000-0 +70269-2 0 00000
2 64511  51.8995 250.6462 0000639  43.0121 317.0890 14.76868978    02
Epoch (UTC): 24 May 2026 16:17:24
Eccentricity: 0.0000639
inclination: 51.8995°
perigee height: 639 km
apogee height: 640 km
right ascension of ascending node: 250.6462°
argument of perigee: 43.0121°
revolutions per day: 14.76868978
mean anomaly at epoch: 317.0890°

The dashed part of the orbit path shows where the satellite is in the earth's shadow,  

DLR